Regional Weather Roundup
Issued by NWS

Home | Current Version | Previous Version | Text Only | Print | Product List | Glossary On
Versions: 1 2 3 4 5 6 7 8 9 10 11 12 13 14 15 16 17 18 19 20 21 22 23 24 25 26 27 28 29 30 31 32 33 34 35 36 37 38 39 40 41 42 43 44 45 46 47 48 49 50
000
ASUS44 KMEG 231610
RWRTN
TENNESSEE HOURLY STATE WEATHER ROUNDUP
NATIONAL WEATHER SERVICE MEMPHIS TN
1100 AM CDT WED JUL 23 2014

TNZ002-004-019-021-049-052-054-088>092-231700-
WEST TENNESSEE

CITY           SKY/WX    TMP DP  RH WIND       PRES   REMARKS
MEMPHIS INTL   MOSUNNY   87  72  60 W8        30.07S HX  93
NWS MEMPHIS      N/A     88 N/A N/A MISG        N/A
JACKSON        SUNNY     87  72  60 W3        30.08R HX  93
DYERSBURG      MOSUNNY   86  66  51 W7        30.07F
UNION CITY     SUNNY     84  72  65 SW3       30.07R
PARIS          MOSUNNY   80  72  76 N6        30.11R
LEXINGTON      SUNNY     84  73  70 VRB3      30.08R HX  91
$$

TNZ008-025-027-028-033-062-065-066-231700-
NORTH MIDDLE TENNESSEE

CITY           SKY/WX    TMP DP  RH WIND       PRES   REMARKS
NASHVILLE      PTSUNNY   89  72  56 CALM      30.10S HX  96
DICKSON        MOSUNNY   86  72  62 W7        30.11R HX  92
PORTLAND       CLOUDY    86  72  62 NW3       30.09S HX  92
CLARKSVILLE    MOSUNNY   87  71  58 N7        30.09S HX  93
LEBANON        MOSUNNY   86  73  64 VRB3      30.08F HX  93
SMYRNA         MOSUNNY   91  75  59 CALM      30.09F HX 101
MURFREESBORO   SUNNY     84  71  65 CALM      30.09S
COOKEVILLE     MOSUNNY   86  75  70 CALM      30.11F HX  95
GALLATIN       MOSUNNY   89  74  61 CALM      30.10S HX  97
CROSSVILLE     SUNNY     79  69  71 NW7       30.16F
$$

TNZ061-075-076-078-094-096-097-231700-
SOUTH MIDDLE TENNESSEE

CITY           SKY/WX    TMP DP  RH WIND       PRES   REMARKS
LEWISBURG      MOSUNNY   86  73  64 W3        30.10S HX  93
FAYETTEVILLE   MOSUNNY   81  70  69 CALM      30.12S
TULLAHOMA      MOSUNNY   81  72  74 W3        30.14F
WINCHESTER     MOSUNNY   81  72  74 NW5       30.12S
MCMINNVILLE    MOSUNNY   82  75  78 CALM      30.12F
COLUMBIA       SUNNY     88  73  62 CALM      30.08F HX  96
SHELBYVILLE    MOSUNNY   82  75  78 CALM      30.12F
$$

TNZ017-018-042-046-047-231700-
NORTHEAST TENNESSEE

CITY           SKY/WX    TMP DP  RH WIND       PRES   REMARKS
TRI CITIES     CLOUDY    76  69  79 SW9       30.14S
ELIZABETHTON   DRIZZLE   73  70  88 W5        30.15S
$$

TNZ012-013-036-069-073-074-231700-
CENTRAL EAST TENNESSEE

CITY           SKY/WX    TMP DP  RH WIND       PRES   REMARKS
KNOXVILLE      LGT RAIN  78  70  76 CALM      30.11F
OAK RIDGE      PTSUNNY   82  71  69 VRB3      30.12S
GATLINBURG     PTSUNNY   72  70  94 CALM      30.13S
MORRISTOWN       N/A     75  72  88 SW9       30.14F
$$

TNZ083-085-099-231700-
SOUTHEAST TENNESSEE

CITY           SKY/WX    TMP DP  RH WIND       PRES   REMARKS
CHATTANOOGA    PTSUNNY   87  70  56 VRB3      30.10F HX  92
$$

SKY/WX REPORTED AS FAIR MEANS FEW OR NO CLOUDS BELOW
12 THOUSAND FEET.



USA.gov is the U.S. government's official web portal to all federal, state and local government web resources and services.